Bangor, ME

7:57 PM EDT on September 23, 2017 (GMT -0400)
Bangor International

Weather History for KBGR - May, 2013

Change the Weather History Date:

Tuesday, May 7, 2013

  Actual Average Record
Temperature  
Mean Temperature 59 °F 51 °F  
Max Temperature 75 °F 62 °F 86 °F (1930)
Min Temperature 43 °F 40 °F 28 °F (1966)
Degree Days  
Heating Degree Days 6 14  
Month to date heating degree days 85 107  
Since 1 July heating degree days 7180 7505  
Cooling Degree Days 0 0  
Month to date cooling degree days 0 0  
Year to date cooling degree days 0 0  
Growing Degree Days 8 (Base 50)    
Moisture  
Dew Point 46 °F    
Average Humidity 69    
Maximum Humidity 100    
Minimum Humidity 38    
Precipitation  
Precipitation 0.00 in 0.11 in 0.95 in (2005)
Month to date precipitation 0.00 0.81  
Year to date precipitation 6.73 13.22  
Snow  
Snow 0.00 in 0.10 in 0.00 in (2002)
Month to date snowfall 0.0 0.1  
Since 1 July snowfall 74.3 66.2  
Snow Depth 0.00 in    
Sea Level Pressure  
Sea Level Pressure 30.14 in    
Wind  
Wind Speed 8 mph (South)    
Max Wind Speed 20 mph    
Max Gust Speed 24 mph    
Visibility 6 miles    
Events      
T = Trace of Precipitation, MM = Missing Value Source: NWS Daily Summary

Daily Weather History Graph

Daily Weather History Graph

Search for Another Location

Airport or City:

Trip Planner

Search our weather history database for the weather conditions in past years. The results will help you decide how hot, cold, wet, or windy it might be!

Date:

Astronomy

May. 07, 2013 Rise Set
Actual Time 5:16 AM EDT 7:48 PM EDT
Civil Twilight 4:43 AM EDT 8:21 PM EDT
Nautical Twilight 4:02 AM EDT 9:02 PM EDT
Astronomical Twilight 3:15 AM EDT 9:50 PM EDT
Moon 3:54 AM EDT (5/7) 5:39 PM EDT (5/7)
Length of Visible Light 15h 37m
Length of Day
14h 31m
Waning Crescent, 5% of the Moon is Illuminated
May 7
Waning Crescent
May 9
New
May 18
First Quarter
May 25
Full
May 31
Last Quarter

Hourly Weather History & Observations

Time (EDT) Temp. Windchill Dew Point Humidity Pressure Visibility Wind Dir Wind Speed Gust Speed Precip Events Conditions
12:39 AM 42.8 °F 37.5 °F 42.8 °F 100% 30.17 in 3.0 mi South 9.2 mph - N/A   Overcast
12:53 AM 43.0 °F 38.2 °F 42.1 °F 97% 30.17 in 3.0 mi South 8.1 mph - N/A   Overcast
1:53 AM 43.0 °F 38.8 °F 42.1 °F 97% 30.15 in 5.0 mi South 6.9 mph - N/A   Overcast
2:48 AM 42.8 °F 39.3 °F 42.8 °F 100% 30.15 in 2.5 mi SSW 5.8 mph - N/A   Overcast
2:53 AM 43.0 °F 39.5 °F 43.0 °F 100% 30.14 in 2.5 mi SSW 5.8 mph - N/A   Overcast
3:53 AM 43.0 °F 38.8 °F 43.0 °F 100% 30.14 in 2.0 mi SSW 6.9 mph - N/A   Overcast
4:53 AM 43.0 °F 38.2 °F 43.0 °F 100% 30.14 in 1.8 mi SSW 8.1 mph - N/A   Overcast
5:07 AM 42.8 °F 38.6 °F 42.8 °F 100% 30.14 in 2.0 mi SSW 6.9 mph - N/A   Overcast
5:27 AM 42.8 °F 39.3 °F 42.8 °F 100% 30.14 in 1.2 mi SSW 5.8 mph - N/A   Overcast
5:53 AM 42.8 °F 38.6 °F 42.8 °F 100% 30.15 in 1.0 mi South 6.9 mph - N/A   Overcast
6:53 AM 44.1 °F 40.8 °F 44.1 °F 100% 30.16 in 1.0 mi South 5.8 mph - N/A   Overcast
7:53 AM 45.0 °F 40.6 °F 44.1 °F 97% 30.17 in 2.5 mi South 8.1 mph - N/A   Overcast
8:20 AM 46.4 °F 43.5 °F 44.6 °F 93% 30.17 in 5.0 mi South 5.8 mph - N/A   Overcast
8:53 AM 48.0 °F - 45.0 °F 89% 30.17 in 10.0 mi South 5.8 mph - N/A   Mostly Cloudy
9:29 AM 51.8 °F - 46.4 °F 82% 30.17 in 10.0 mi SSW 5.8 mph - N/A   Scattered Clouds
9:53 AM 54.0 °F - 46.0 °F 75% 30.17 in 10.0 mi SSW 4.6 mph - N/A   Scattered Clouds
10:53 AM 63.0 °F - 48.0 °F 58% 30.15 in 10.0 mi Variable 3.5 mph - N/A   Partly Cloudy
11:53 AM 66.9 °F - 48.9 °F 52% 30.13 in 10.0 mi SSE 5.8 mph - N/A   Partly Cloudy
12:53 PM 73.0 °F - 50.0 °F 44% 30.11 in 10.0 mi South 11.5 mph - N/A   Partly Cloudy
1:53 PM 73.9 °F - 48.0 °F 40% 30.09 in 10.0 mi South 11.5 mph 20.7 mph N/A   Partly Cloudy
2:53 PM 73.9 °F - 46.9 °F 38% 30.07 in 10.0 mi South 15.0 mph 24.2 mph N/A   Partly Cloudy
3:53 PM 72.0 °F - 46.0 °F 40% 30.06 in 10.0 mi South 18.4 mph 24.2 mph N/A   Partly Cloudy
4:53 PM 71.1 °F - 45.0 °F 39% 30.06 in 10.0 mi South 15.0 mph 23.0 mph N/A   Scattered Clouds
5:53 PM 66.9 °F - 46.9 °F 49% 30.07 in 10.0 mi South 13.8 mph 21.9 mph N/A   Partly Cloudy
6:53 PM 63.0 °F - 48.0 °F 58% 30.09 in 10.0 mi SSE 12.7 mph - N/A   Partly Cloudy
7:53 PM 59.0 °F - 48.9 °F 69% 30.12 in 10.0 mi South 9.2 mph - N/A   Partly Cloudy
8:53 PM 55.9 °F - 48.9 °F 77% 30.14 in 10.0 mi South 5.8 mph - N/A   Partly Cloudy
9:53 PM 53.1 °F - 50.0 °F 89% 30.16 in 10.0 mi South 4.6 mph - N/A   Clear
10:44 PM 51.8 °F - 51.8 °F 100% 30.16 in 10.0 mi South 6.9 mph - N/A   Partly Cloudy
10:53 PM 52.0 °F - 51.1 °F 97% 30.16 in 10.0 mi South 4.6 mph - N/A   Partly Cloudy
11:12 PM 51.8 °F - 51.8 °F 100% 30.17 in 2.0 mi South 6.9 mph - N/A   Overcast
11:49 PM 51.8 °F - 51.8 °F 100% 30.17 in 0.5 mi South 5.8 mph - N/A   Overcast
11:53 PM 52.0 °F - 52.0 °F 100% 30.17 in 0.5 mi SSW 5.8 mph - N/A   Overcast